Flag for Canada Weather past 2 weeks in Creston, British Columbia, Canada

Now
43 °F

Quite cool.


Feels Like: 43 °F
Forecast: 36 / 67 °F
Wind: 1 mph from Northeast

Location: Creston

Current Time: May 3, 2015 at 7:58:29 AM

Latest Report: May 3, 2015 at 7:00 AM


Visibility: N/A

Pressure: 30.11 "Hg

Humidity: 50%

Dew point: 25 °F

Location of CrestonLocation

Historic Weather in Creston — Graph

°F

Creston temperature yesterday

Maximum temperature yesterday: 62 °F (at 3:00 PM)
Minimum temperature yesterday: 47 °F (at 6:00 AM)
Average temperature yesterday: 54 °F

Past Weeks' High & Low Weather Summary

 TemperatureHumidityPressure
High78 °F (Apr 28, 5:00 PM)93% (Apr 25, 4:00 AM)30.41 "Hg (Apr 25, 4:00 AM)
Low36 °F (Apr 25, 5:00 AM)17% (Apr 18, 5:00 PM)29.71 "Hg (Apr 24, 4:00 AM)
Average53 °F50%29.99 "Hg
* Reported Apr 18 6:00 AM — May 3 6:00 AM, Creston, Weather by CustomWeather, © 2015

Note: Actual official high and low records may vary slightly from our data, if they occured in-between our weather recording intervals... More about our weather records

Advertising

Creston weather history for previous 24 hours

 ConditionsComfort  
Time TempWeatherWind HumidityBarometerVisibility
6:00 AM
Sun, May 3
36 °FChilly.1 mph60%30.10 "HgN/A
5:00 AM38 °FChilly.5 mph54%30.09 "HgN/A
4:00 AM41 °FQuite cool.2 mph48%30.07 "HgN/A
3:00 AM42 °FQuite cool.3 mph46%30.06 "HgN/A
2:00 AM42 °FQuite cool.2 mph44%30.05 "HgN/A
1:00 AM45 °FQuite cool.1 mph40%30.04 "HgN/A
12:00 AM46 °FCool.2 mph37%30.02 "HgN/A
11:00 PM
Sat, May 2
48 °FCool.6 mph38%30.01 "HgN/A
10:00 PM50 °FCool.6 mph32%30.00 "HgN/A
9:00 PM54 °FCool.10 mph24%29.97 "HgN/A
8:00 PM55 °FCool.12 mph23%29.95 "HgN/A
7:00 PM58 °FRefreshingly cool.13 mph22%29.93 "HgN/A
6:00 PM60 °FRefreshingly cool.14 mph23%29.93 "HgN/A
5:00 PM61 °FRefreshingly cool.15 mph21%29.92 "HgN/A
4:00 PM61 °FRefreshingly cool.15 mph23%29.91 "HgN/A
3:00 PM62 °FRefreshingly cool.15 mph22%29.91 "HgN/A
2:00 PM61 °FRefreshingly cool.12 mph21%29.91 "HgN/A
1:00 PM60 °FRefreshingly cool.15 mph22%29.92 "HgN/A
12:00 PM56 °FRefreshingly cool.14 mph25%29.93 "HgN/A
11:00 AM58 °FRefreshingly cool.12 mph31%29.93 "HgN/A
10:00 AM55 °FRefreshingly cool.10 mph40%29.93 "HgN/A
9:00 AM52 °FCool.14 mph47%29.92 "HgN/A
8:00 AM50 °FCool.12 mph54%29.92 "HgN/A
7:00 AM47 °FCool.13 mph62%29.90 "HgN/A
Weather by CustomWeather, © 2015

See weather overviewHow to use our weather pages